TimeCDT,TemperatureF,Dew PointF,Humidity,Sea Level PressureIn,VisibilityMPH,Wind Direction,Wind SpeedMPH,Gust SpeedMPH,PrecipitationIn,Events,Conditions,WindDirDegrees,DateUTC
12:15 AM,30.2,26.6,86,29.97,10.0,Calm,Calm,-,0.00,,Mostly Cloudy,0,2013-10-22 05:15:00
12:35 AM,30.2,26.6,86,29.98,10.0,Calm,Calm,-,0.00,,Mostly Cloudy,0,2013-10-22 05:35:00
12:55 AM,30.2,26.6,86,29.98,10.0,Calm,Calm,-,0.00,,Mostly Cloudy,0,2013-10-22 05:55:00
1:15 AM,30.2,28.4,93,29.99,10.0,Calm,Calm,-,0.00,,Mostly Cloudy,0,2013-10-22 06:15:00
1:35 AM,30.2,28.4,93,29.99,10.0,Calm,Calm,-,0.00,,Overcast,0,2013-10-22 06:35:00
1:55 AM,30.2,28.4,93,29.99,10.0,Calm,Calm,-,0.00,,Overcast,0,2013-10-22 06:55:00
2:15 AM,30.2,26.6,86,29.99,10.0,North,4.6,-,0.00,,Overcast,10,2013-10-22 07:15:00
2:35 AM,30.2,26.6,86,30.00,10.0,North,3.5,-,0.00,,Mostly Cloudy,350,2013-10-22 07:35:00
2:55 AM,32.0,28.4,87,29.99,10.0,North,3.5,-,0.00,,Scattered Clouds,360,2013-10-22 07:55:00
3:15 AM,32.0,28.4,87,30.00,10.0,North,4.6,-,0.00,,Scattered Clouds,360,2013-10-22 08:15:00
3:35 AM,32.0,28.4,87,30.00,10.0,North,5.8,-,0.00,,Partly Cloudy,360,2013-10-22 08:35:00
3:55 AM,32.0,28.4,87,30.01,10.0,North,5.8,-,0.00,,Mostly Cloudy,360,2013-10-22 08:55:00
4:15 AM,32.0,28.4,87,30.00,10.0,North,4.6,-,0.00,,Overcast,360,2013-10-22 09:15:00
4:35 AM,32.0,28.4,87,30.01,10.0,North,5.8,-,0.00,,Scattered Clouds,350,2013-10-22 09:35:00
4:55 AM,32.0,28.4,87,30.00,10.0,North,4.6,-,0.00,,Clear,360,2013-10-22 09:55:00
5:15 AM,32.0,28.4,87,30.00,10.0,North,4.6,-,0.00,,Mostly Cloudy,360,2013-10-22 10:15:00
5:35 AM,32.0,30.2,93,30.01,10.0,North,4.6,-,0.00,,Overcast,350,2013-10-22 10:35:00
5:55 AM,32.0,30.2,93,30.01,10.0,NNW,4.6,-,0.00,,Overcast,340,2013-10-22 10:55:00
6:15 AM,32.0,30.2,93,30.02,10.0,NNW,5.8,-,0.00,,Overcast,340,2013-10-22 11:15:00
6:35 AM,32.0,30.2,93,30.02,10.0,NNW,3.5,-,0.00,,Overcast,340,2013-10-22 11:35:00
6:55 AM,32.0,30.2,93,30.02,10.0,NNW,3.5,-,0.00,,Overcast,330,2013-10-22 11:55:00
7:15 AM,32.0,30.2,93,30.03,10.0,NNW,4.6,-,0.00,,Overcast,330,2013-10-22 12:15:00
7:35 AM,32.0,30.2,93,30.03,10.0,NW,4.6,-,0.00,,Overcast,320,2013-10-22 12:35:00
7:55 AM,32.0,30.2,93,30.04,10.0,North,4.6,-,0.00,,Overcast,360,2013-10-22 12:55:00
8:15 AM,32.0,28.4,87,30.05,10.0,North,5.8,-,0.00,,Overcast,350,2013-10-22 13:15:00
8:35 AM,32.0,28.4,87,30.06,10.0,NNW,4.6,-,0.00,,Scattered Clouds,330,2013-10-22 13:35:00
8:55 AM,32.0,30.2,93,30.07,10.0,NNW,5.8,-,0.00,,Mostly Cloudy,340,2013-10-22 13:55:00
9:15 AM,32.0,30.2,93,30.07,10.0,North,6.9,-,0.00,,Mostly Cloudy,350,2013-10-22 14:15:00
9:35 AM,33.8,30.2,87,30.07,10.0,North,5.8,-,0.00,,Overcast,360,2013-10-22 14:35:00
9:55 AM,33.8,30.2,87,30.08,10.0,North,5.8,-,0.00,,Overcast,360,2013-10-22 14:55:00
10:15 AM,33.8,30.2,87,30.08,10.0,North,5.8,-,0.00,,Overcast,360,2013-10-22 15:15:00
10:35 AM,35.6,30.2,81,30.08,10.0,North,5.8,-,0.00,,Overcast,350,2013-10-22 15:35:00
10:55 AM,35.6,30.2,81,30.09,10.0,NNW,6.9,-,0.00,,Overcast,340,2013-10-22 15:55:00
11:15 AM,37.4,28.4,70,30.09,10.0,NW,8.1,-,0.00,,Overcast,310,2013-10-22 16:15:00
11:35 AM,37.4,28.4,70,30.09,10.0,NNW,9.2,-,0.00,,Overcast,330,2013-10-22 16:35:00
11:55 AM,37.4,28.4,70,30.09,9.0,NW,8.1,-,0.00,,Mostly Cloudy,320,2013-10-22 16:55:00
12:15 PM,37.4,26.6,65,30.09,10.0,North,5.8,-,0.00,,Mostly Cloudy,350,2013-10-22 17:15:00
12:35 PM,37.4,24.8,60,30.09,10.0,NNW,6.9,-,0.00,,Overcast,330,2013-10-22 17:35:00
12:55 PM,37.4,26.6,65,30.08,10.0,North,8.1,-,0.00,,Overcast,350,2013-10-22 17:55:00
1:15 PM,37.4,26.6,65,30.08,10.0,NW,6.9,-,0.00,,Overcast,320,2013-10-22 18:15:00
1:35 PM,37.4,26.6,65,30.08,10.0,North,8.1,-,0.00,,Overcast,360,2013-10-22 18:35:00
1:55 PM,37.4,26.6,65,30.08,10.0,NNW,8.1,-,0.00,,Mostly Cloudy,340,2013-10-22 18:55:00
2:15 PM,37.4,26.6,65,30.08,10.0,NW,10.4,-,0.00,,Overcast,320,2013-10-22 19:15:00
2:35 PM,37.4,26.6,65,30.08,10.0,NNW,6.9,-,0.00,,Overcast,340,2013-10-22 19:35:00
2:55 PM,37.4,26.6,65,30.08,10.0,North,6.9,-,0.00,,Mostly Cloudy,350,2013-10-22 19:55:00
3:15 PM,37.4,26.6,65,30.07,10.0,NNW,9.2,-,0.00,,Mostly Cloudy,340,2013-10-22 20:15:00
3:35 PM,39.2,26.6,61,30.08,9.0,NW,9.2,-,0.00,,Overcast,320,2013-10-22 20:35:00
3:55 PM,39.2,26.6,61,30.07,10.0,NW,5.8,-,0.00,,Overcast,320,2013-10-22 20:55:00
4:15 PM,39.2,26.6,61,30.08,10.0,NW,10.4,-,0.00,,Overcast,310,2013-10-22 21:15:00
4:35 PM,39.2,26.6,61,30.07,10.0,WNW,8.1,-,0.00,,Mostly Cloudy,290,2013-10-22 21:35:00
4:55 PM,39.2,26.6,61,30.07,10.0,NW,9.2,-,0.00,,Mostly Cloudy,310,2013-10-22 21:55:00
5:15 PM,39.2,26.6,61,30.07,10.0,WNW,8.1,-,0.00,,Overcast,300,2013-10-22 22:15:00
5:35 PM,39.2,26.6,61,30.07,10.0,NW,10.4,-,0.00,,Overcast,320,2013-10-22 22:35:00
5:55 PM,39.2,28.4,65,30.07,10.0,WNW,6.9,-,0.00,,Overcast,300,2013-10-22 22:55:00
6:15 PM,37.4,28.4,70,30.08,10.0,WNW,10.4,-,0.00,,Overcast,290,2013-10-22 23:15:00
6:35 PM,37.4,28.4,70,30.07,10.0,WNW,9.2,-,0.00,,Overcast,290,2013-10-22 23:35:00
6:55 PM,37.4,28.4,70,30.08,10.0,NW,6.9,-,0.00,,Overcast,310,2013-10-22 23:55:00
7:15 PM,37.4,28.4,70,30.08,10.0,NW,6.9,-,0.00,,Overcast,310,2013-10-23 00:15:00
7:35 PM,37.4,28.4,70,30.08,10.0,NW,5.8,-,0.00,,Overcast,320,2013-10-23 00:35:00
7:55 PM,37.4,30.2,75,30.08,10.0,NW,4.6,-,0.00,,Overcast,320,2013-10-23 00:55:00
8:15 PM,35.6,30.2,81,30.08,10.0,NW,4.6,-,0.00,,Overcast,310,2013-10-23 01:15:00
8:35 PM,35.6,30.2,81,30.09,10.0,NW,6.9,-,0.00,,Overcast,310,2013-10-23 01:35:00
8:55 PM,35.6,30.2,81,30.08,10.0,NW,4.6,-,0.00,,Overcast,320,2013-10-23 01:55:00
9:15 PM,35.6,30.2,81,30.08,10.0,NW,5.8,-,0.00,,Overcast,310,2013-10-23 02:15:00
9:35 PM,35.6,30.2,81,30.08,10.0,West,5.8,-,0.00,,Overcast,280,2013-10-23 02:35:00
10:15 PM,33.8,30.2,87,30.07,10.0,West,4.6,-,0.00,,Overcast,270,2013-10-23 03:15:00
10:35 PM,33.8,30.2,87,30.07,10.0,WNW,5.8,-,0.00,,Overcast,290,2013-10-23 03:35:00
10:55 PM,33.8,30.2,87,30.07,10.0,West,5.8,-,0.00,,Overcast,280,2013-10-23 03:55:00
11:15 PM,33.8,30.2,87,30.07,10.0,West,5.8,-,0.00,,Overcast,280,2013-10-23 04:15:00
11:35 PM,33.8,30.2,87,30.06,10.0,West,5.8,-,0.00,,Overcast,280,2013-10-23 04:35:00
11:55 PM,33.8,30.2,87,30.06,10.0,West,6.9,-,0.00,,Overcast,280,2013-10-23 04:55:00